Regional Weather Roundup
Issued by NWS

Home | Current Version | Previous Version | Graphics & Text | Print | Product List | Glossary On
Versions: 1 2 3 4 5 6 7 8 9 10 11 12 13 14 15 16 17 18 19 20 21 22 23 24 25 26 27 28 29 30 31 32 33 34 35 36 37 38 39 40 41 42 43 44 45 46 47 48 49 50
587
ASUS43 KLOT 270504
RWRIL

ILLINOIS REGIONAL WEATHER ROUNDUP
NATIONAL WEATHER SERVICE CHICAGO/ROMEOVILLE IL
1200 AM CDT TUE SEP 27 2016

NOTE: "FAIR" INDICATES FEW OR NO CLOUDS BELOW 12,000 FEET WITH NO
SIGNIFICANT WEATHER AND/OR OBSTRUCTIONS TO VISIBILITY.

* THESE STATIONS ARE NOT UNDER NWS QUALITY CONTROL. THEY ALSO MAY NOT
  REPORT WEATHER SUCH AS PRECIPITATION OR FOG.

ILZ001-002-007-009-015-016-024-270600-
NORTHWEST ILLINOIS

CITY           SKY/WX    TMP DP  RH WIND       PRES   REMARKS
MOLINE         CLEAR     55  42  61 SW7       29.96F
STERLING*      CLEAR     53  43  68 SW8       29.95S
$$

ILZ003-004-008-010-011-017-018-270600-
NORTH CENTRAL ILLINOIS

CITY           SKY/WX    TMP DP  RH WIND       PRES   REMARKS
ROCKFORD       CLEAR     54  39  57 SW6       29.92F
FREEPORT*      CLEAR     50  40  69 SW10      29.93S
ROCHELLE*      CLEAR     50  41  71 SW8       29.93F
$$

ILZ005-006-012>014-019>023-270600-
NORTHEAST ILLINOIS

CITY           SKY/WX    TMP DP  RH WIND       PRES   REMARKS
CHICAGO-OHARE  CLEAR     57  36  45 W8        29.91F
CHICAGO-MIDWAY CLEAR     59  36  42 SW12      29.92F
AURORA         CLEAR     52  39  61 SW8       29.93F
LANSING*       PTCLDY    52  41  66 SW6       29.94F
JOLIET*        CLEAR     59  40  50 SW6       29.94F
WAUKEGAN       CLEAR     54  38  54 SW7       29.87F
DUPAGE AIRPORT CLEAR     52  38  58 SW10      29.92S
KANKAKEE*      CLEAR     51  41  69 SW9       29.97S
WHEELING       CLEAR     57  35  43 SW7       29.91F
MORRIS*        CLEAR     53  39  61 CALM      29.93F
ROMEOVILLE*    CLEAR     55  42  61 W8        29.94S
NORTHERLY ISL    N/A     61  33  35 S8          N/A
$$

LMZ740>746-270600-
SOUTHERN LAKE MICHIGAN

STATION/POSITION SKY/WX   TEMP    WIND        PRES    VSBY  WAVE
                          AIR SEA DIR/SP/G                  HT/PER
                          (F)     (DEG/KT/KT) (MB)    (MI)  (FT/S)
SOUTHERN BUOY              66 71  260/ 21/ 25 1010.3          5/ 5
WILMETTE HARBOR            62 62  270/ 14/ 17   N/A           1/ 2
HARRISON CRIB              65     260/ 17/ 20   N/A
BURNHAM HARBOR             61     200/  2/  9   N/A
CALUMET HARBOR             60     220/  4/  7 1013.2F
BURNS HARBOR               62     230/ 11/ 20 1014.2F
MICHIGAN CITY              60     190/ 12/ 13   N/A
MICHIGAN CITY 6N           65 67  240/ 16/ 19   N/A           4/ 4
ST. JOSEPH                 67 64  250/ 19/ 25 1012.7F         7/ 6
$$

ILZ025>027-034>036-040-047-049-050-058-095>099-270600-
WEST-CENTRAL ILLINOIS

CITY           SKY/WX    TMP DP  RH WIND       PRES   REMARKS
QUINCY         CLEAR     54  45  71 SW6       30.04F
GALESBURG*       N/A    N/A N/A N/A MISG        N/A
MACOMB*        CLEAR     54  45  70 SW7       30.04S
JACKSONVILLE*  CLEAR     55  44  64 SW7       30.05S
PITTSFIELD*    CLEAR     57  46  66 SW5       30.07S
$$

ILZ028>032-037-038-041>044-048-051>054-059>061-270600-
CENTRAL ILLINOIS

CITY           SKY/WX    TMP DP  RH WIND       PRES   REMARKS
PONTIAC        CLEAR     56  44  64 SW8       29.98F
BLOOMINGTON    CLEAR     53  41  63 SW9       30.01F
DECATUR        CLEAR     56  40  55 SW8       30.04F
PEORIA         CLEAR     56  43  61 SW8       29.99F
LACON*         CLEAR     58  40  50 SW7       29.96F
LINCOLN*       CLEAR     58  43  57 W6        30.02F
SPRINGFIELD    CLEAR     53  43  68 SW5       30.04F
TAYLORVILLE    CLEAR     54  42  63 SW6       30.05F
$$

ILZ033-039-045-046-055>057-062-063-270600-
EAST-CENTRAL ILLINOIS

CITY           SKY/WX    TMP DP  RH WIND       PRES   REMARKS
CHAMPAIGN      CLEAR     52  41  66 SW7       30.03F
RANTOUL*       CLEAR     54  42  63 SW6       30.01S
MATTOON        CLEAR     56  42  59 SW7       30.04F
PARIS*         CLEAR     54  42  65 CALM      30.05S
$$

ILZ079-100>102-270600-
SOUTHWEST ILLINOIS

CITY           SKY/WX    TMP DP  RH WIND       PRES   REMARKS
BELLEVILLE     CLEAR     52  50  92 CALM      30.07F
CAHOKIA*       CLEAR     56  47  71 SW7       30.09S
SPARTA*        CLEAR     56  48  76 CALM      30.11S
$$

ILZ064>066-069>071-074>076-080>082-084>086-088>090-092>094-270600-
SOUTH-CENTRAL ILLINOIS

CITY           SKY/WX    TMP DP  RH WIND       PRES   REMARKS
CARBONDALE     CLEAR     50  50 100 CALM      30.10F
EFFINGHAM*     CLEAR     50  49  96 CALM      30.08F
MARION         CLEAR     55  54  94 S3        30.11S
MT. VERNON     CLEAR     48  45  87 CALM      30.09F
CENTRALIA*     CLEAR     52  48  88 W3        30.08S
SALEM*         CLEAR     55  47  77 CALM      30.09S
METROPOLIS*    CLEAR     52  51  98 CALM      30.11S
$$

ILZ067-068-072-073-078-083-087-091-270600-
SOUTHEAST ILLINOIS

CITY           SKY/WX    TMP DP  RH WIND       PRES   REMARKS
LAWRENCEVILLE  CLEAR     56  47  71 NW3       30.07F
FLORA*         CLEAR     52  48  87 SW3       30.08F
FAIRFIELD*       N/A     50  49  96 CALM      30.08S
HARRISBURG*    CLEAR     52  52 100 CALM      30.10S
ROBINSON*      CLEAR     50  45  84 SW3       30.08S
CARMI*         CLEAR     50  50 100 CALM      30.08S
$$

ABBREVIATIONS USED IN REMARKS
   TC - TEMPERATURE IN CELSIUS
  WCI - WIND CHILL INDEX
   HX - HEAT INDEX
  VSB - VISIBILITY
$$





USA.gov is the U.S. government's official web portal to all federal, state and local government web resources and services.